Regional Weather Roundup
Issued by NWS Jackson, KY

Home | Current Version | Previous Version | Text Only | Print | Product List | Glossary On
Versions: 1 2 3 4 5 6 7 8 9 10 11 12 13 14 15 16 17 18 19 20 21 22 23 24 25 26 27 28 29 30 31 32 33 34 35 36 37 38 39 40 41 42 43 44 45 46 47 48 49 50
000
ASUS43 KJKL 271210
RWRJKL

EAST KENTUCKY HOURLY WEATHER ROUNDUP
NATIONAL WEATHER SERVICE JACKSON KY
800 AM EDT SUN MAY 27 2018

NOTE: "FAIR" INDICATES FEW OR NO CLOUDS BELOW 12,000 FEET WITH
NO SIGNIFICANT WEATHER AND/OR OBSTRUCTIONS TO VISIBILITY.

* THESE REPORTS ARE NOT UNDER NWS QUALITY CONTROL AND MAY NOT
  REPORT WEATHER SUCH AS PRECIPITATION AND FOG.

KYZ079-080-083-085-087-088-110-112-115-119-120-271300
...EASTERN KENTUCKY...

CITY           SKY/WX    TMP DP  RH WIND       PRES   REMARKS
JACKSON          N/A     69  66  90 CALM      29.98R
6HR MIN TEMP:  68; 6HR MAX TEMP:  70; 6HR PCP: TRACE;

LONDON         CLOUDY    68  68 100 CALM      29.98R
6HR MIN TEMP:  67; 6HR MAX TEMP:  69; 6HR PCP: TRACE;

SOMERSET*      PTSUNNY   68  68 100 MISG      29.98S
MONTICELLO*      N/A     70  68  93 NE8       29.99R
6HR MIN TEMP:  68; 6HR MAX TEMP:  70;

WILLIAMSBURG*    N/A     68  68 100 CALM      29.99R
MIDDLESBORO*   PTSUNNY   69  68  98 CALM      30.00S
6HR MIN TEMP:  66; 6HR MAX TEMP:  69; 6HR PCP:  0.03;

HARLAN APT*      N/A     66  66  99 CALM      30.01F
PIKE CO APT*   PTSUNNY   68  68 100 SE3       29.99S
MOREHEAD APT*    N/A     72  68  88 S6        29.97R
ASHLAND*         N/A     70  69  97 CALM      29.94R
$$

KYZ035-036-041-042-044-050-067-078-099-271300
...CENTRAL KENTUCKY...

CITY           SKY/WX    TMP DP  RH WIND       PRES   REMARKS
MT STERLING*     N/A     70  68  94 SW6       29.98R
FLEMING/MASON*   N/A     71  70  99 SW6       29.97R
DANVILLE*        N/A     70  68  94 SW5       29.97S
LEXINGTON        N/A     71  68  90 SW8       29.96R
6HR MIN TEMP:  69; 6HR MAX TEMP:  71;

FRANKFORT        N/A     71  66  84 SW5       29.94R
6HR MIN TEMP:  68; 6HR MAX TEMP:  72;

LOUISVILLE     LGT RAIN  71  67  87 S5        29.92R
6HR MIN TEMP:  70; 6HR MAX TEMP:  76; 6HR PCP:  0.26;

LEBANON*         N/A     70  70 100 SW3       29.96S
GLASGOW*         N/A     69  68  94 CALM      29.95R
BOWLING GREEN    N/A     70  69  97 CALM      29.94R
6HR MIN TEMP:  67; 6HR MAX TEMP:  72;

$$

KYZ091>093-OHZ055-061-077-WVZ005-015-034-035-042-271300
...SOUTHERN OHIO/WEST VIRGINIA...

CITY           SKY/WX    TMP DP  RH WIND       PRES   REMARKS
COVINGTON      PTSUNNY   69  66  90 W3        29.93R
COLUMBUS       PTSUNNY   69  67  93 CALM      29.92R FOG
DAYTON         PTSUNNY   70  68  93 SW5       29.93R
WILMINGTON       N/A     69  68  96 SW5       29.93R
HUNTINGTON       N/A     72  66  81 SW6       29.94R
CHARLESTON     PTSUNNY   69  69 100 CALM      29.96R
PINEVILLE*       N/A     68  67  96 MISG      30.06S FOG
BECKLEY          N/A     68  63  84 SW3       30.04R
BLUEFIELD      PTSUNNY   67  65  93 W8        30.07R
LOGAN CO APT*    N/A     70  68  94 CALM      30.00R
$$

VAZ002-007-008-TNZ017-027-036-066-071-271300
...SOUTHWEST VIRGINIA/EAST TENNESSEE...

CITY           SKY/WX    TMP DP  RH WIND       PRES   REMARKS
WISE*          PTSUNNY   64  64 100 SW7       30.07S
JONESVILLE*    CLOUDY    66  66 100 CALM      30.04S
ABINGDON*      CLOUDY    69  69 100 W5        30.06R FOG
BRISTOL        PTSUNNY   70  69  97 CALM      30.03R
MORRISTOWN*    PTSUNNY   68  68 100 CALM      30.00S
SEVIERVILLE*   SUNNY     70  68  94 CALM      29.99S
LAFOLLETTE*    CLOUDY    68  68 100 CALM      30.02R
OAK RIDGE        N/A     70  70 100 CALM      29.99R
CROSSVILLE       N/A     68  66  93 CALM      30.01R
NASHVILLE        N/A     70  68  93 S3        29.95R
$$

...KEY TO REMARKS...
VSB - VISIBILITY IN MILES
WCI - WIND CHILL INDEX
HX  - HEAT INDEX

$$



USA.gov is the U.S. government's official web portal to all federal, state and local government web resources and services.